This demonstration page uses our WeatherBlox Daily Observations layout. Learn more.

Left ArrowRight Arrow

39.08367, -84.50855

Hourly Observations for August 3, 2021

Temp ( °F °C ) Dew Point ( °F °C ) Humidity (%) Winds ( mph kmh ) Pressure ( in mb ) Visibility ( mi km ) Precip ( " mm )
12:53 am 00:53 Clear 60 15.6 58 14.4 93 93 N N/A 30.10 1019 10 16 N/A
1:53 am 01:53 Clear 58 14.4 57 13.9 97 97 N N/A 30.09 1019 10 16 N/A
2:53 am 02:53 Clear 58 14.4 57 13.9 97 97 N N/A 30.08 1019 9 14 N/A
3:53 am 03:53 Clear 57 13.9 56 13.3 96 96 N N/A 30.08 1019 9 14 N/A
4:53 am 04:53 Clear with Mist and Fog 57 13.9 55 12.8 93 93 N N/A 30.07 1018 4 6 N/A
5:16 am 05:16 Clear with Mist and Fog 56 13.3 55 12.8 97 97 N N/A 30.08 1019 1 1 N/A
5:26 am 05:26 Clear with Mist and Fog 57 13.9 55 12.8 93 93 N N/A 30.08 1019 3 4 N/A
5:33 am 05:33 Clear 57 13.9 56 13.3 96 96 N N/A 30.08 1019 10 16 N/A
5:50 am 05:50 Mostly Clear with Mist and Fog 57 14 55 13 94 94 N N/A 30.08 1019 4 6 N/A
5:53 am 05:53 Mostly Clear with Mist and Fog 57 13.9 56 13.3 96 96 N N/A 30.07 1018 4 6 N/A
6:00 am 06:00 Mostly Clear with Mist and Fog 55 12.8 55 12.8 100 100 N N/A 30.08 1019 2 3 N/A
6:06 am 06:06 Mostly Cloudy with Mist and Fog 56 13.3 55 12.8 97 97 N N/A 30.08 1019 1 1 N/A
6:21 am 06:21 Mostly Clear with Mist and Fog 55 12.8 54 12.2 96 96 N N/A 30.09 1019 1 2 N/A
6:24 am 06:24 Mostly Clear with Mist and Fog 55 12.8 54 12.2 96 96 N N/A 30.09 1019 4 6 N/A
6:32 am 06:32 Clear with Mist and Fog 55 12.8 54 12.2 96 96 N N/A 30.08 1019 1 2 N/A
6:35 am 06:35 Clear with Fog 56 13.3 54 12.2 93 93 N N/A 30.09 1019 0 0 N/A
6:46 am 06:46 Sunny with Mist and Fog 56 13.3 54 12.2 93 93 N N/A 30.09 1019 2 3 N/A
6:53 am 06:53 Sunny 56 13.3 55 12.8 97 97 N N/A 30.08 1019 8 13 N/A
7:53 am 07:53 Sunny 59 15 58 14.4 96 96 N N/A 30.09 1019 10 16 N/A
8:53 am 08:53 Sunny 65 18.3 58 14.4 78 78 NE 5 7 30.09 1019 10 16 N/A
9:53 am 09:53 Sunny 71 21.7 59 15 66 66 VRB 5 7 30.09 1019 10 16 N/A
10:53 am 10:53 Sunny 76 24.4 57 13.9 52 52 NE 7 11 30.08 1019 10 16 N/A
11:53 am 11:53 Sunny 78 25.6 56 13.3 47 47 N N/A 30.07 1018 10 16 N/A
12:53 pm 12:53 Partly Cloudy 80 26.7 57 13.9 45 45 NNE 6 9 30.06 1018 10 16 N/A
1:53 pm 13:53 Partly Cloudy 81 27.2 56 13.3 42 42 ENE 12 19 30.05 1018 10 16 N/A
2:53 pm 14:53 Partly Cloudy 83 28.3 55 12.8 38 38 NNE 8 13 30.04 1017 10 16 N/A
3:53 pm 15:53 Sunny 82 27.8 54 12.2 38 38 NE 10 17 30.03 1017 10 16 N/A
4:53 pm 16:53 Partly Cloudy 82 27.8 54 12.2 38 38 ENE 6 9 30.02 1017 10 16 N/A
5:53 pm 17:53 Sunny 77 25 53 11.7 43 43 E 8 13 30.02 1017 10 16 N/A
6:53 pm 18:53 Partly Cloudy 78 25.6 53 11.7 42 42 NE 9 15 30.02 1017 10 16 N/A
7:53 pm 19:53 Sunny 76 24.4 54 12.2 47 47 NE 7 11 30.02 1017 10 16 N/A
8:53 pm 20:53 Mostly Clear 69 20.6 57 13.9 66 66 N N/A 30.03 1017 10 16 N/A
9:53 pm 21:53 Mostly Clear 65 18.3 57 13.9 76 76 N N/A 30.05 1018 10 16 N/A
10:53 pm 22:53 Clear 62 16.7 57 13.9 84 84 N N/A 30.06 1018 10 16 N/A
11:53 pm 23:53 Clear 61 16.1 58 14.4 90 90 N N/A 30.06 1018 10 16 N/A

Powered by AerisWeather